OV1-5 R/B, 2123

Orbit data source: Space-Track

OV1-5 R/B, 2123 is space debris in LEO originally from a launch on Wed, 30 Mar 1966 UTC launched from the Air Force Western Test Range (AFWTR). Debris objects in space refer to the collection of defunct objects orbiting the Earth. Examples of debris include non-operational satellites, rocket bodies, and fragments generated from explosions, collisions, or faulty payload assembly.

Loading next visibility...
Identifier
2123, 1966-025C
Orbit
LEO
Country
Flag of USUS
Related business
Manufacturer
ABL
Mission
Spacecraft
Bus & Motor
ALTAIR, Unknown motor
Mass
~125 kg wet, ~125 kg dry
Launch date (UTC)
1966-03-30 (60 years ago)
Launch vehicle
Unknown
Launch site
Air Force Western Test Range (AFWTR)
Object type
Payload
Rocket body
Debris
Shape & HBR
Unknown
Radar Cross Section
Medium (>0.1 m² and <1 m²)

Expand to show TLE details & history
Last TLE update: 14 hours ago

TLE from 14 hours ago
0 OV1-5 R/B
1 02123U 66025C   26135.91000205  .00000286  00000-0  32469-4 0  9995
2 02123 144.6393 127.6756 0046148  48.5002 311.9621 13.65897810   388
Epoch: 2026-05-15T21:50Z
TLE epoch observation values (Epoch: 2026-05-15T21:50:24.177Z)
Latitude
-0.00004°
Longitude
-73.55963°
Altitude
990.636 km
Speed
7.37 km/s
True Right ascension
08h 30m 42s
True Declination
0° 00' 00"
Sunlit
Object was in daylight at epoch
Visualization orbit readout
Latitude
Unknown
Longitude
Unknown
Altitude
Unknown
Speed
Unknown
Apparent Right ascension
Unknown
Apparent Declination
Unknown
Sunlit
N/A
Visualization observer readout
Local Sidereal Time
20:38:33
Azimuth
Unknown
Elevation
Unknown
Doppler factor
Unknown
Orbital elements
Apogee altitude
1,051.434 km
Perigee altitude
983.177 km
Semi-major axis
7,395.442 km
Eccentricity
0.00461
Inclination
144.6393°
RAAN
127.6756°
Arg. of periapsis
48.5002°
True anomaly
311.56736°
Mean anomaly
311.9621°
Eccentric anomaly
311.76488°
Mean motion
3.41269 °/min
Orbital period
105.49 mins
BSTAR
0.000032469
Loading maneuver chart data...
Computing Atmospheric mass density...
Loading historical data...
Loading historical data...
Loading historical data...
Loading historical data...
Loading historical data...
Loading historical data...
Loading historical data...

Documentation

Showing up to 5 results
|